COSMOS 1312

导读

COSMOS 1312(宇宙1312)是独联体(CIS)继承自苏联航天体系的一颗卫星,于1981年9月30日8时发射升空。隶属于苏联/俄罗斯广泛的COSMOS卫星系列,该系列涵盖侦察、通信、科学试验等多种军用与民用任务。作为冷战时期苏联空间部署的一部分,它延续了COSMOS系列持续推进太空能力建设的路线,在近地轨道完成既定任务后现已陨落,是苏联航天活动的见证。

Basic Information
目录编号:
12879
目录名称:
COSMOS 1312
国际标识:
1981-098A
轨道中心:
EARTH
卫星名称:
COSMOS 1312
卫星全名:
--
卫星状态:
在轨 (已飞行16420 天)
发射日期:
1981-09-30 UTC
国别 :
俄罗斯(独联体) (CIS)
星等 :
--
This satellite is enrolled in the Space Conjunction Data Service (SCDS) and the current flight risk assessment level is: No High Risk
Orbit Information
数据来源 国际轨道数据 AOE轨道数据
星历时间 2026-09-14T13:01:26+0800
4小时前
查看轨道信息
2026-09-11T00:00:00+0800
3天前
查看轨道信息
半长轴 7874.609km 7874.609km
偏心率 0.0005916 0.0005998
轨道倾角 82.605° 82.606°
近地点辐角 274.784° 282.664°
升交点赤经 172.167° 174.337°
平近点角 239.135° 234.030°
近地点 1491.813km 1491.748km
远地点 1501.131km 1501.196km
周期 115.905分钟 115.905分钟
每日圈数 12.423939 12.423938
Detailed Information
使用方式:
暂无
2D Orbit Map
3D Orbit Map
Orbit Altitude Analysis Chart
Orbit Inclination Analysis Chart
Orbit Comprehensive Analysis Chart
View Comprehensive Chart
Miss Distance Evolution Trend with All Objects Subscribe to Flight Safety Assessment
Collision Probability Evolution Trend with All Objects Subscribe to Flight Safety Assessment